|
Cosmos 2181 Rocket - Orbit
|
Bridgewater Hill Observatory;
20:21:57
| Home | Info | Passes |
|
View from above orbital plane
|
View from above satellite
|
Ground track
|
The orbit data is extracted from the following two-line orbital elements,
1 21903U 92012B 13142.52769081 .00000087 00000-0 76053-4 0 1710
2 21903 082.9378 204.7455 0041346 274.1751 205.0927 13.74315366 63357
| Epoch (UTC): | 22 May 2013 12:39:52 |
| Eccentricity: | 0.0041346 |
| inclination: | 82.9378° |
| perigee height: | 953 km |
| apogee height: | 1014 km |
| right ascension of ascending node: | 204.7455° |
| argument of perigee: | 274.1751° |
| revolutions per day: | 13.74315366 |
| mean anomaly at epoch: | 205.0927° |
| orbit number at epoch: | 6335 |
The dashed part of the orbit path shows where the satellite is in the earth's shadow,
|
|